Location: Meanaryar
(48.4161°N, 4.7315°W)
Time: 10:33:54
(UTC+00:00)

USA 186 - Pass Details

Date: 18 September 2020
Orbit: 261 x 425 km, 96.9° (Epoch: 12 October)

Event Time Altitude Azimuth Distance (km) Brightness Sun altitude
Exits shadow 20:20:54 14° 204° (SSW) 1,221 4.1 -19.5°
Maximum altitude 20:23:08 32° 264° (W) 727 3.4 -19.8°
Drops below altitude 10° 20:26:05 10° 330° (NNW) 1,507 5.4 -20.2°
Sets 20:28:16 0° 340° (NNW) 2,394 6.3 -20.6°
